QPF
0.00 0.00 0.00 0.00 0.00 0.00 0.00 0.00 0.00 0.00 0.00 0.00 0.00 0.00 0.00 0.00 0.00 0.00 0.00 0.00 0.00 0.00 0.00 0.00 0.00 0.00 0.00 0.00 0.00 0.00 0.00 0.00 0.00 0.00 0.00 0.00 0.00 0.00 0.00 0.00 0.00 0.00 0.00 0.00 0.00 0.00 0.00 0.00 0.00
0.00 0.00 0.00 0.00 0.00 0.00 0.00 0.00 0.00 0.00 0.00 0.00 0.00 0.00 0.00 0.00 0.00 0.00 0.00 0.00 0.00 0.00 0.00 0.00 0.00 0.00 0.00 0.00 0.00 0.00 0.00 0.00 0.00 0.00 0.00 0.00 0.00 0.00 0.00 0.00 0.00 0.00 0.00 0.00 0.00 0.00 0.00 0.00 0.00
0.00 0.00 0.00 0.00 0.00 0.00 0.00 0.00 0.00 0.00 0.00 0.00 0.00 0.00 0.00 0.00 0.00 0.00 0.00 0.00 0.00 0.00 0.00 0.00 0.00 0.00 0.00 0.00 0.00 0.00 0.00 0.00 0.00 0.00 0.00 0.00 0.00 0.00 0.00 0.00 0.00 0.00 0.00 0.00 0.00 0.00 0.00 0.00 0.00
0.00 0.00 0.00 0.00 0.00 0.00 0.00 0.00 0.00 0.00 0.00 0.00 0.00 0.00 0.00 0.00 0.00 0.00 0.00 0.00 0.00 0.00 0.00 0.00 0.00 0.00 0.00 0.00 0.00 0.00 0.00 0.00 0.00 0.00 0.00 0.00 0.00 0.00 0.00 0.00 0.00 0.00 0.00 0.00 0.00 0.00 0.00 0.00 0.00
0.00 0.00 0.00 0.00 0.00 0.00 0.00 0.00 0.00 0.00 0.00 0.00 0.00 0.00 0.00 0.00 0.00 0.00 0.00 0.00 0.00 0.00 0.00 0.00 0.00 0.00 0.00 0.00 0.00 0.00 0.00 0.00 0.00 0.00 0.00 0.00 0.00 0.00 0.00 0.00 0.00 0.00 0.00 0.00 0.00 0.00 0.00 0.00 0.00
0.00 0.00 0.00 0.00 0.00 0.00 0.00 0.00 0.00 0.00 0.00 0.00 0.00 0.00 0.00 0.00 0.00 0.00 0.00 0.00 0.00 0.00 0.00 0.00 0.00 0.00 0.00 0.00 0.00 0.00 0.00 0.00 0.00 0.00 0.00 0.00 0.00 0.00 0.00 0.00 0.00 0.00 0.00 0.00 0.00 0.00 0.00 0.00 0.00
0.00 0.00 0.00 0.00 0.00 0.00 0.00 0.00 0.00 0.00 0.00 0.00 0.00 0.00 0.00 0.00 0.00 0.00 0.00 0.00 0.00 0.00 0.00 0.00 0.00 0.00 0.00 0.00 0.00 0.00 0.00 0.00 0.00 0.00 0.00 0.00 0.00 0.00 0.00 0.00 0.00 0.00 0.00 0.00 0.00 0.00 0.00 0.00 0.00
0.00 0.00 0.00 0.00 0.00 0.00 0.00 0.00 0.00 0.00 0.00 0.00 0.00 0.00 0.00 0.00 0.00 0.00 0.00 0.00 0.00 0.00 0.00 0.00 0.00 0.00 0.00 0.00 0.00 0.00 0.00 0.00 0.00 0.00 0.00 0.00 0.00 0.00 0.00 0.00 0.00 0.00 0.00 0.00 0.00 0.00 0.00 0.00 0.00
0.00 0.00 0.00 0.00 0.00 0.00 0.00 0.00 0.00 0.00 0.00 0.00 0.00 0.00 0.00 0.00 0.00 0.00 0.00 0.00 0.00 0.00 0.00 0.00 0.00 0.00 0.00 0.00 0.00 0.00 0.00 0.00 0.00 0.00 0.00 0.00 0.00 0.00 0.00 0.00 0.00 0.00 0.00 0.00 0.00 0.00 0.00 0.00 0.00
0.00 0.00 0.00 0.00 0.00 0.00 0.00 0.00 0.00 0.00 0.00 0.00 0.00 0.00 0.00 0.00 0.00 0.00 0.00 0.00 0.00 0.00 0.00 0.00 0.00 0.00 0.00 0.00 0.00 0.00 0.00 0.00 0.00 0.00 0.00 0.00 0.00 0.00 0.00 0.00 0.00 0.00 0.00 0.00 0.00 0.00 0.00 0.00 0.00
0.00 0.00 0.00 0.00 0.00 0.00 0.00 0.00 0.00 0.00 0.00 0.00 0.00 0.00 0.00 0.00 0.00 0.00 0.00 0.00 0.00 0.00 0.00 0.00 0.00 0.00 0.00 0.00 0.00 0.00 0.00 0.00 0.00 0.00 0.00 0.00 0.00 0.00 0.00 0.00 0.00 0.00 0.00 0.00 0.00 0.00 0.00 0.00 0.00
0.00 0.00 0.00 0.00 0.00 0.00 0.00 0.00 0.00 0.00 0.00 0.00 0.00 0.00 0.00 0.00 0.00 0.00 0.01 0.00 0.00 0.00 0.00 0.00 0.00 0.00 0.00 0.00 0.00 0.00 0.00 0.00 0.00 0.00 0.00 0.00 0.00 0.00 0.00 0.00 0.00 0.00 0.00 0.00 0.00 0.00 0.00 0.00 0.00
0.00 0.00 0.00 0.00 0.00 0.00 0.00 0.00 0.00 0.00 0.00 0.00 0.00 0.00 0.00 0.00 0.00 0.00 0.00 0.00 0.00 0.00 0.00 0.00 0.00 0.00 0.00 0.00 0.00 0.00 0.00 0.00 0.00 0.00 0.00 0.00 0.00 0.00 0.00 0.00 0.00 0.00 0.00 0.00 0.00 0.00 0.00 0.00 0.00
0.00 0.00 0.00 0.00 0.00 0.00 0.00 0.00 0.00 0.00 0.00 0.00 0.00 0.00 0.00 0.00 0.00 0.00 0.00 0.00 0.00 0.00 0.00 0.00 0.00 0.00 0.00 0.00 0.00 0.00 0.00 0.00 0.00 0.00 0.00 0.00 0.00 0.00 0.00 0.00 0.00 0.00 0.00 0.00 0.00 0.00 0.00 0.00 0.00
0.00 0.00 0.00 0.00 0.00 0.00 0.00 0.00 0.00 0.00 0.00 0.00 0.00 0.00 0.00 0.00 0.00 0.00 0.00 0.00 0.00 0.00 0.00 0.00 0.00 0.00 0.00 0.00 0.00 0.00 0.00 0.00 0.00 0.00 0.00 0.00 0.00 0.00 0.00 0.00 0.00 0.00 0.00 0.00 0.00 0.00 0.00 0.00 0.00
0.00 0.00 0.00 0.00 0.00 0.00 0.00 0.00 0.00 0.00 0.00 0.00 0.00 0.00 0.00 0.00 0.00 0.00 0.00 0.00 0.00 0.00 0.00 0.00 0.00 0.00 0.00 0.00 0.00 0.00 0.00 0.00 0.00 0.00 0.00 0.00 0.00 0.00 0.00 0.00 0.00 0.00 0.00 0.00 0.00 0.00 0.00 0.00 0.00
0.00 0.00 0.00 0.00 0.00 0.00 0.00 0.00 0.00 0.00 0.00 0.00 0.00 0.00 0.00 0.00 0.00 0.00 0.00 0.00 0.00 0.00 0.00 0.00 0.00 0.00 0.00 0.00 0.00 0.00 0.00 0.00 0.00 0.00 0.00 0.00 0.00 0.00 0.00 0.00 0.00 0.00 0.00 0.00 0.00 0.00 0.00 0.00 0.00
0.00 0.00 0.00 0.00 0.00 0.00 0.00 0.00 0.00 0.00 0.00 0.00 0.00 0.00 0.00 0.00 0.00 0.00 0.00 0.00 0.00 0.00 0.00 0.00 0.00 0.00 0.00 0.00 0.00 0.00 0.00 0.00 0.00 0.00 0.00 0.00 0.00 0.00 0.00 0.00 0.00 0.00 0.00 0.00 0.00 0.00 0.00 0.00 0.00
0.00 0.00 0.00 0.00 0.00 0.00 0.00 0.00 0.00 0.00 0.00 0.00 0.00 0.00 0.00 0.00 0.00 0.00 0.00 0.00 0.00 0.00 0.00 0.00 0.00 0.00 0.00 0.00 0.00 0.00 0.00 0.00 0.00 0.00 0.00 0.00 0.00 0.00 0.00 0.00 0.00 0.00 0.00 0.00 0.00 0.00 0.00 0.00 0.00
0.00 0.00 0.00 0.00 0.00 0.00 0.00 0.00 0.00 0.00 0.00 0.00 0.00 0.00 0.00 0.00 0.00 0.00 0.00 0.00 0.00 0.00 0.00 0.00 0.00 0.00 0.00 0.00 0.00 0.00 0.00 0.00 0.00 0.00 0.00 0.00 0.00 0.00 0.00 0.00 0.00 0.00 0.00 0.00 0.00 0.00 0.00 0.00 0.00
0.00 0.00 0.00 0.00 0.00 0.00 0.00 0.00 0.00 0.00 0.00 0.00 0.00 0.00 0.00 0.00 0.00 0.00 0.00 0.00 0.00 0.00 0.00 0.00 0.00 0.00 0.00 0.00 0.00 0.00 0.00 0.00 0.00 0.00 0.00 0.00 0.00 0.00 0.00 0.00 0.00 0.00 0.00 0.00 0.00 0.00 0.00 0.00 0.00
0.00 0.00 0.00 0.00 0.00 0.00 0.00 0.00 0.00 0.00 0.00 0.00 0.00 0.00 0.00 0.00 0.00 0.00 0.00 0.00 0.00 0.00 0.00 0.00 0.00 0.00 0.00 0.00 0.00 0.00 0.00 0.00 0.00 0.00 0.00 0.00 0.00 0.00 0.00 0.00 0.00 0.00 0.00 0.00 0.00 0.00 0.00 0.00 0.00
0.00 0.00 0.00 0.00 0.00 0.00 0.00 0.00 0.00 0.00 0.00 0.00 0.00 0.00 0.00 0.00 0.00 0.00 0.00 0.00 0.00 0.00 0.00 0.00 0.00 0.00 0.00 0.00 0.00 0.00 0.00 0.00 0.00 0.00 0.00 0.00 0.00 0.00 0.00 0.00 0.00 0.00 0.00 0.00 0.00 0.00 0.00 0.00 0.00
0.00 0.00 0.00 0.00 0.00 0.00 0.00 0.00 0.00 0.00 0.00 0.00 0.00 0.00 0.00 0.00 0.00 0.00 0.00 0.00 0.00 0.00 0.00 0.00 0.00 0.00 0.00 0.00 0.00 0.00 0.00 0.00 0.00 0.00 0.00 0.00 0.00 0.00 0.00 0.00 0.00 0.01 0.00 0.01 0.00 0.00 0.00 0.00 0.00
0.00 0.00 0.00 0.00 0.00 0.00 0.00 0.00 0.00 0.00 0.00 0.00 0.00 0.00 0.00 0.00 0.00 0.00 0.00 0.00 0.00 0.00 0.00 0.00 0.00 0.00 0.00 0.00 0.00 0.00 0.00 0.00 0.00 0.00 0.00 0.00 0.00 0.00 0.00 0.00 0.00 0.01 0.01 0.01 0.01 0.00 0.00 0.00 0.00
0.00 0.01 0.02 0.02 0.00 0.00 0.00 0.00 0.00 0.00 0.00 0.00 0.00 0.00 0.00 0.00 0.00 0.00 0.00 0.00 0.00 0.00 0.00 0.00 0.00 0.00 0.00 0.00 0.00 0.00 0.00 0.00 0.00 0.00 0.00 0.00 0.00 0.00 0.00 0.00 0.01 0.02 0.02 0.00 0.00 0.00 0.00 0.00 0.00
0.00 0.00 0.00 0.01 0.00 0.00 0.00 0.00 0.00 0.00 0.00 0.00 0.00 0.00 0.00 0.00 0.00 0.00 0.00 0.00 0.00 0.00 0.00 0.00 0.00 0.00 0.00 0.00 0.00 0.00 0.00 0.00 0.00 0.00 0.00 0.00 0.00 0.00 0.00 0.00 0.01 0.02 0.01 0.00 0.00 0.00 0.00 0.00 0.00
0.00 0.00 0.02 0.02 0.01 0.01 0.00 0.00 0.00 0.01 0.01 0.00 0.00 0.00 0.00 0.00 0.00 0.00 0.00 0.00 0.00 0.00 0.00 0.00 0.00 0.00 0.00 0.00 0.00 0.00 0.00 0.00 0.00 0.00 0.00 0.00 0.00 0.00 0.00 0.01 0.01 0.00 0.00 0.00 0.00 0.00 0.00 0.00 0.00
0.00 0.01 0.05 0.02 0.01 0.01 0.00 0.00 0.03 0.01 0.01 0.00 0.00 0.00 0.00 0.00 0.00 0.00 0.00 0.00 0.00 0.00 0.00 0.00 0.00 0.00 0.00 0.00 0.00 0.00 0.00 0.00 0.00 0.00 0.00 0.01 0.00 0.00 0.00 0.00 0.00 0.00 0.00 0.00 0.00 0.00 0.00 0.00 0.00
0.00 0.03 0.01 0.01 0.00 0.01 0.01 0.01 0.01 0.01 0.02 0.00 0.00 0.00 0.00 0.00 0.00 0.00 0.00 0.00 0.00 0.00 0.00 0.00 0.00 0.00 0.00 0.00 0.01 0.01 0.01 0.00 0.02 0.02 0.05 0.04 0.02 0.00 0.00 0.00 0.00 0.00 0.00 0.00 0.00 0.00 0.00 0.00 0.00
MSLP
1009.05 1008.75 1009.14 1009.19 1009.65 1008.92 1007.96 1005.77 1003.52 1001.74 1000.41 999.00 997.54 997.85 999.14 999.67 1000.63 1002.10 1000.65 1001.87 1004.11 1005.20 1005.37 1005.78 1006.03 1006.72 1007.52 1008.09 1008.65 1009.11 1009.76 1010.13 1010.47 1010.87 1011.29 1011.52 1011.82 1012.09 1012.38 1012.47 1012.71 1012.93 1013.14 1013.39 1013.60 1013.85 1014.01 1014.07 1014.03
1009.07 1008.70 1009.05 1008.92 1009.22 1008.77 1006.83 1004.21 1002.38 1000.31 998.98 997.99 997.17 997.43 998.21 999.70 999.48 1001.20 1002.10 1002.34 1003.93 1004.84 1005.16 1005.65 1005.96 1006.49 1007.34 1008.13 1008.51 1009.13 1009.71 1010.07 1010.45 1010.80 1011.16 1011.47 1011.70 1012.07 1012.28 1012.50 1012.77 1012.94 1013.21 1013.37 1013.64 1013.77 1013.92 1013.88 1013.93
1009.23 1008.98 1009.53 1009.00 1008.52 1007.49 1005.94 1003.36 1001.94 1000.11 998.38 997.30 997.41 997.37 997.81 999.11 999.66 1000.84 1001.86 1002.52 1004.03 1004.95 1005.13 1005.43 1005.76 1006.46 1006.96 1007.87 1008.37 1008.99 1009.54 1009.86 1010.27 1010.67 1011.02 1011.31 1011.74 1012.03 1012.28 1012.59 1012.88 1013.06 1013.19 1013.40 1013.47 1013.60 1013.71 1013.74 1013.83
1009.08 1008.89 1009.31 1008.51 1007.73 1006.16 1004.74 1003.08 1001.96 1000.74 999.16 996.72 996.85 997.45 997.60 998.11 999.26 1000.38 1001.82 1002.70 1003.52 1004.68 1005.11 1005.31 1005.66 1006.26 1006.94 1007.45 1008.32 1008.89 1009.36 1009.65 1010.11 1010.51 1010.94 1011.34 1011.66 1011.96 1012.20 1012.52 1012.87 1013.15 1013.24 1013.40 1013.45 1013.47 1013.65 1013.67 1013.79
1009.05 1008.99 1009.31 1008.46 1007.07 1005.42 1003.88 1002.75 1001.55 1000.44 999.47 997.56 997.07 997.50 998.23 998.39 998.75 1000.34 1001.53 1002.17 1003.05 1004.31 1004.94 1005.27 1005.70 1006.05 1006.63 1007.13 1008.02 1008.64 1009.28 1009.64 1009.98 1010.39 1010.87 1011.16 1011.49 1011.78 1012.01 1012.36 1012.75 1013.06 1013.16 1013.34 1013.37 1013.41 1013.63 1013.70 1013.79
1009.09 1008.61 1009.20 1008.47 1006.68 1004.90 1003.27 1002.02 1001.57 1000.80 999.85 998.11 997.77 997.75 998.21 998.22 998.60 999.87 1000.63 1001.41 1002.55 1003.52 1004.72 1005.15 1005.78 1006.04 1006.51 1006.94 1007.64 1008.30 1009.00 1009.58 1009.89 1010.22 1010.64 1010.98 1011.34 1011.64 1011.84 1012.03 1012.34 1012.89 1012.88 1013.13 1013.27 1013.46 1013.65 1013.69 1013.75
1009.14 1008.85 1008.64 1008.02 1006.71 1004.84 1002.94 1001.96 1001.59 1001.07 1000.30 998.92 997.89 998.24 998.78 998.88 998.98 999.59 1000.38 1001.39 1002.50 1003.42 1004.26 1005.11 1005.54 1005.94 1006.41 1006.99 1007.50 1008.10 1008.70 1009.19 1009.65 1010.08 1010.47 1010.73 1011.11 1011.43 1011.63 1011.84 1012.20 1012.43 1012.67 1012.82 1013.08 1013.32 1013.49 1013.60 1013.68
1008.28 1008.85 1008.30 1007.71 1006.56 1004.45 1002.77 1002.12 1001.21 1001.08 1000.06 999.32 998.32 998.17 998.90 998.90 998.84 999.62 1000.47 1001.74 1002.84 1003.72 1004.02 1004.80 1005.55 1005.93 1006.46 1007.00 1007.33 1007.71 1008.19 1008.73 1009.33 1009.87 1010.30 1010.64 1010.90 1011.18 1011.31 1011.68 1012.11 1012.20 1012.42 1012.46 1012.77 1013.06 1013.27 1013.47 1013.55
1008.24 1008.18 1007.47 1006.96 1006.08 1004.41 1002.91 1002.37 1001.15 1000.55 1000.22 999.75 998.97 998.62 998.53 998.20 999.36 1000.02 1000.89 1001.95 1002.90 1003.84 1004.33 1004.60 1005.34 1005.88 1006.19 1007.00 1007.35 1007.72 1008.21 1008.66 1009.09 1009.59 1010.00 1010.41 1010.78 1010.97 1011.10 1011.41 1011.80 1011.98 1012.29 1012.26 1012.54 1012.80 1012.95 1013.23 1013.36
1007.76 1007.02 1006.31 1005.89 1005.24 1004.39 1003.30 1002.58 1001.64 1001.18 1000.71 999.82 999.54 999.32 998.50 999.82 999.64 1000.15 1000.62 1001.24 1002.43 1003.36 1004.01 1004.20 1005.19 1005.83 1006.19 1006.48 1007.08 1007.71 1008.29 1008.61 1009.06 1009.36 1009.53 1010.04 1010.54 1010.75 1010.92 1011.08 1011.43 1011.65 1012.01 1012.06 1012.34 1012.62 1012.68 1012.95 1013.23
1007.21 1006.33 1006.35 1005.58 1004.95 1004.21 1003.45 1002.48 1001.53 1001.44 1000.82 1000.28 1000.02 1000.14 999.89 999.49 1000.29 1000.21 1000.31 1000.52 1001.12 1001.99 1002.97 1003.55 1004.20 1005.17 1005.67 1006.00 1006.63 1007.31 1007.87 1008.19 1008.63 1009.16 1009.23 1009.50 1010.02 1010.33 1010.65 1010.84 1011.04 1011.33 1011.66 1011.89 1012.06 1012.44 1012.49 1012.59 1012.87
1006.90 1006.13 1005.73 1005.22 1004.58 1004.09 1003.28 1002.55 1001.86 1001.34 1001.02 1000.10 1000.01 1000.03 1000.49 999.83 999.58 1000.16 1000.35 1000.49 1000.86 1001.31 1001.67 1002.87 1003.66 1004.30 1004.85 1005.33 1005.98 1006.53 1007.50 1007.74 1007.98 1008.19 1008.60 1009.04 1009.43 1009.86 1010.19 1010.32 1010.48 1010.78 1011.15 1011.50 1011.76 1012.05 1012.11 1012.25 1012.44
1006.73 1006.19 1005.57 1004.73 1004.18 1003.40 1003.08 1002.45 1001.98 1001.16 1000.71 1000.16 999.99 999.95 1000.19 1000.65 999.38 999.09 999.84 1000.58 1000.69 1001.19 1001.74 1002.15 1002.78 1003.49 1004.08 1005.18 1005.66 1005.91 1006.56 1006.97 1006.92 1007.48 1007.83 1008.09 1008.52 1009.05 1009.50 1009.62 1009.78 1010.06 1010.46 1010.81 1011.33 1011.49 1011.77 1011.85 1011.90
1006.88 1006.26 1005.46 1004.63 1003.87 1003.37 1003.16 1002.59 1002.02 1000.69 1000.63 1000.49 1000.04 1000.09 1000.08 1000.20 999.94 999.12 999.53 1000.02 1000.47 1000.72 1001.31 1001.50 1001.99 1002.64 1002.80 1004.22 1004.91 1005.09 1005.78 1005.85 1006.14 1006.69 1006.91 1007.16 1007.46 1008.11 1008.60 1008.89 1009.21 1009.39 1009.65 1009.91 1010.35 1010.79 1011.03 1011.16 1011.44
1007.27 1006.61 1005.46 1004.43 1004.00 1003.33 1003.18 1002.14 1001.06 1000.93 1000.71 1000.39 1000.04 1000.01 1000.02 1000.36 999.95 999.15 999.37 999.74 1000.14 1000.19 1000.20 1001.52 1001.64 1002.20 1002.86 1003.73 1004.23 1004.70 1004.65 1005.21 1005.47 1005.87 1006.08 1006.12 1006.72 1007.24 1007.80 1008.24 1008.49 1008.68 1008.91 1009.23 1009.75 1010.22 1010.45 1010.73 1010.98
1008.06 1007.03 1006.13 1004.49 1004.17 1003.42 1003.81 1001.61 1000.71 1001.05 1000.54 1000.00 999.91 999.72 999.52 999.99 1000.20 999.53 999.20 999.33 999.45 1000.08 1000.33 1000.64 1001.28 1002.33 1002.96 1003.49 1003.90 1003.78 1004.15 1004.32 1004.64 1005.21 1005.13 1005.34 1005.85 1006.44 1007.32 1007.71 1007.90 1007.89 1008.39 1008.85 1009.41 1009.75 1010.06 1010.23 1010.44
1008.14 1007.09 1006.16 1004.84 1004.75 1004.07 1003.60 1001.66 1000.76 1001.12 1000.58 999.76 999.63 999.61 999.44 998.97 999.44 999.48 999.36 999.22 998.78 999.39 999.87 1000.60 1001.01 1001.84 1002.57 1003.59 1003.54 1003.46 1003.57 1003.83 1003.84 1004.31 1004.68 1004.86 1005.25 1005.83 1006.47 1006.96 1007.26 1007.40 1007.92 1008.32 1008.76 1009.10 1009.45 1009.85 1010.04
1008.21 1007.16 1005.98 1004.25 1004.68 1003.91 1003.55 1002.06 1001.13 1000.76 1000.19 999.56 999.34 999.09 999.07 998.73 998.40 998.61 998.74 998.71 998.49 998.88 999.20 999.71 1000.81 1001.33 1002.08 1002.70 1002.97 1003.37 1003.54 1003.67 1003.61 1003.87 1003.97 1004.32 1004.65 1005.12 1005.73 1006.25 1006.65 1007.11 1007.44 1007.86 1008.30 1008.61 1008.76 1009.09 1009.56
1007.51 1006.87 1005.89 1004.31 1004.73 1004.42 1004.02 1002.83 1001.36 1001.57 1000.66 999.93 998.81 998.62 998.50 998.25 998.00 997.86 998.16 998.13 998.13 998.37 998.90 999.34 999.99 1000.61 1001.12 1002.15 1002.82 1003.39 1003.39 1003.44 1003.24 1003.28 1003.49 1003.47 1003.95 1004.53 1005.09 1005.66 1006.18 1006.70 1007.18 1007.61 1007.94 1008.28 1008.65 1009.05 1009.22
1007.09 1006.60 1005.51 1004.82 1004.87 1004.70 1003.95 1002.78 1001.30 1001.28 1000.74 1000.16 999.55 998.56 997.70 997.83 997.73 997.50 997.32 997.72 997.89 998.07 998.30 998.63 999.12 999.73 1000.38 1001.12 1001.71 1002.20 1002.67 1002.68 1002.53 1002.53 1002.70 1002.89 1003.42 1003.97 1004.69 1005.18 1005.72 1006.27 1006.94 1007.34 1007.67 1008.03 1008.56 1008.94 1009.18
1006.93 1006.53 1005.76 1005.42 1005.19 1004.88 1004.22 1003.38 1001.97 1000.08 1000.45 999.92 998.97 998.40 997.60 996.82 996.85 996.89 996.93 997.31 997.40 997.59 998.05 998.20 998.56 999.23 999.82 1000.23 1001.22 1001.84 1002.16 1002.39 1002.40 1002.49 1002.45 1002.66 1002.98 1003.47 1004.20 1004.81 1005.36 1005.78 1006.47 1007.15 1007.46 1007.79 1008.26 1009.01 1009.26
1006.73 1006.72 1006.10 1005.79 1005.58 1005.37 1005.07 1003.20 1002.90 1001.35 1000.19 999.90 998.82 998.05 997.23 996.70 995.95 995.88 996.22 996.84 997.08 996.40 996.77 997.45 998.25 998.73 999.31 999.84 1000.85 1001.27 1001.56 1002.05 1002.00 1001.97 1002.03 1002.47 1002.77 1003.28 1003.91 1004.56 1005.03 1005.44 1006.14 1006.77 1007.12 1007.45 1007.96 1008.62 1009.27
1007.31 1007.38 1006.78 1006.56 1006.13 1005.80 1005.61 1004.90 1002.66 1002.05 1000.67 999.60 998.94 998.12 996.79 995.96 995.37 994.89 995.30 995.51 996.10 996.07 996.34 996.90 997.52 998.12 998.59 999.20 999.93 1000.34 1001.09 1001.28 1001.52 1001.83 1001.89 1002.34 1002.72 1003.02 1003.70 1004.28 1004.70 1005.25 1006.00 1006.41 1006.93 1007.40 1007.82 1008.29 1008.87
1007.07 1007.33 1007.41 1006.87 1006.86 1006.50 1005.83 1005.53 1003.45 1002.72 1001.35 999.54 998.58 997.66 996.56 995.45 994.65 994.18 993.83 994.27 995.01 995.83 995.57 996.21 996.97 997.64 997.99 998.50 999.07 999.56 1000.17 1000.72 1001.40 1001.84 1001.89 1002.25 1002.68 1002.94 1003.33 1004.04 1004.40 1005.08 1005.67 1006.19 1006.69 1007.08 1007.62 1008.09 1008.46
1007.18 1007.72 1008.89 1008.81 1008.12 1007.19 1005.98 1005.53 1003.78 1002.48 1001.30 999.70 998.26 997.33 996.16 995.16 994.50 993.50 993.50 993.74 994.31 995.01 995.44 995.70 996.20 996.85 997.14 997.51 998.09 998.76 999.46 1000.18 1000.73 1001.28 1001.62 1002.12 1002.62 1002.91 1003.37 1003.58 1004.30 1004.95 1005.52 1005.93 1006.49 1007.05 1007.53 1007.90 1008.31
1007.47 1008.01 1009.02 1009.40 1008.90 1007.89 1006.71 1005.19 1002.73 1001.57 1000.81 999.79 998.86 997.42 996.25 995.09 993.60 992.14 992.19 992.74 993.43 993.68 994.26 994.82 995.32 995.90 996.42 996.91 997.37 997.89 998.80 999.53 1000.20 1000.64 1001.10 1001.61 1002.22 1002.53 1002.92 1003.21 1004.19 1004.83 1005.40 1006.02 1006.59 1007.08 1007.47 1007.72 1008.04
1007.16 1007.65 1008.05 1009.12 1008.88 1008.90 1007.09 1004.75 1003.23 1001.65 1000.88 1001.45 999.92 997.49 995.99 994.94 993.21 990.85 991.29 991.89 992.48 992.88 993.30 993.86 994.49 995.10 995.62 996.20 996.96 997.48 998.33 998.96 999.51 1000.01 1000.50 1001.13 1001.67 1002.33 1002.54 1003.30 1004.15 1004.74 1005.38 1006.00 1006.51 1007.02 1007.39 1007.55 1007.88
1007.69 1007.73 1008.35 1010.07 1010.23 1009.05 1006.28 1005.30 1004.21 1003.73 1003.49 1002.66 1000.92 999.68 996.78 994.24 993.16 991.18 990.84 991.58 992.01 992.37 992.89 993.15 993.74 994.44 995.06 995.67 996.39 997.20 997.92 998.53 998.92 999.39 1000.19 1000.85 1001.56 1001.91 1002.65 1003.41 1004.10 1004.71 1005.32 1005.88 1006.35 1006.83 1007.04 1007.43 1007.77
1008.01 1008.37 1009.39 1010.64 1010.35 1009.14 1007.24 1005.64 1005.01 1005.08 1004.58 1003.99 1002.92 1000.59 998.38 995.95 992.56 991.69 990.96 991.45 991.70 992.02 992.42 993.12 993.72 994.35 995.05 995.59 996.29 997.04 997.75 998.21 998.61 999.07 999.75 1000.63 1001.30 1001.85 1002.66 1003.34 1004.00 1004.68 1005.16 1005.66 1006.29 1006.70 1006.93 1007.39 1007.65
1008.17 1008.31 1008.88 1009.87 1009.56 1009.13 1008.14 1005.95 1005.27 1005.64 1004.30 1005.08 1003.68 1001.93 999.10 995.85 993.25 992.35 991.48 991.73 991.94 992.06 992.35 992.87 993.53 994.02 994.66 995.37 996.13 996.90 997.53 997.94 998.45 999.18 999.97 1000.49 1001.02 1001.79 1002.60 1003.19 1003.90 1004.27 1004.98 1005.56 1006.16 1006.50 1006.75 1007.14 1007.40
Thickness
5778 5783 5780 5775 5741 5750 5746 5779 5818 5824 5834 5869 5884 5873 5853 5857 5837 5802 5884 5878 5862 5857 5858 5854 5852 5844 5836 5830 5826 5822 5814 5810 5805 5800 5793 5788 5783 5777 5773 5770 5766 5762 5759 5754 5751 5747 5744 5742 5740
5772 5778 5770 5757 5730 5725 5752 5805 5814 5840 5861 5875 5882 5878 5863 5841 5870 5858 5863 5873 5864 5860 5860 5855 5851 5844 5836 5829 5826 5819 5813 5809 5804 5799 5793 5786 5781 5776 5773 5769 5764 5760 5755 5752 5747 5744 5740 5738 5737
5763 5768 5743 5734 5731 5742 5758 5805 5814 5838 5863 5868 5862 5880 5869 5847 5866 5868 5875 5871 5862 5858 5858 5855 5851 5843 5839 5831 5826 5819 5812 5809 5803 5798 5792 5786 5779 5775 5771 5766 5761 5756 5753 5749 5746 5742 5738 5736 5734
5751 5753 5744 5726 5732 5766 5783 5800 5811 5823 5844 5877 5874 5855 5878 5879 5870 5877 5877 5871 5865 5858 5855 5854 5850 5844 5837 5832 5824 5817 5812 5808 5803 5795 5789 5784 5778 5773 5770 5764 5757 5752 5749 5745 5743 5741 5737 5735 5731
5744 5735 5711 5718 5739 5773 5796 5809 5820 5822 5832 5857 5867 5849 5848 5868 5883 5878 5874 5874 5866 5858 5855 5851 5847 5843 5838 5833 5823 5817 5809 5805 5801 5794 5787 5782 5777 5773 5769 5763 5757 5751 5748 5744 5741 5739 5736 5732 5728
5721 5730 5699 5703 5739 5772 5795 5814 5808 5809 5820 5844 5849 5850 5852 5875 5872 5874 5876 5874 5869 5862 5854 5850 5843 5840 5836 5832 5825 5818 5810 5802 5798 5793 5787 5782 5777 5772 5769 5765 5760 5750 5748 5743 5740 5736 5732 5729 5726
5712 5706 5701 5711 5729 5755 5785 5797 5791 5798 5807 5823 5857 5830 5842 5856 5869 5872 5874 5869 5863 5859 5854 5848 5843 5840 5836 5830 5824 5818 5811 5805 5799 5792 5787 5783 5777 5773 5770 5764 5758 5753 5747 5744 5739 5735 5731 5727 5723
5719 5705 5703 5714 5723 5746 5788 5789 5803 5798 5806 5838 5853 5828 5823 5849 5868 5866 5864 5857 5852 5850 5852 5847 5841 5837 5832 5827 5823 5819 5813 5807 5800 5793 5787 5781 5777 5773 5770 5763 5756 5753 5747 5745 5739 5735 5729 5724 5721
5717 5686 5693 5713 5723 5746 5777 5773 5801 5814 5810 5820 5839 5841 5849 5860 5854 5852 5849 5848 5845 5842 5843 5845 5839 5834 5831 5824 5820 5816 5811 5805 5801 5794 5788 5781 5776 5772 5769 5763 5756 5752 5746 5744 5738 5733 5728 5723 5719
5700 5697 5709 5733 5739 5741 5761 5773 5783 5786 5791 5809 5824 5839 5850 5840 5841 5838 5837 5839 5839 5838 5839 5843 5836 5829 5826 5824 5818 5813 5807 5803 5798 5795 5792 5783 5775 5771 5767 5763 5756 5752 5746 5743 5736 5729 5727 5722 5717
5704 5697 5716 5729 5739 5745 5750 5766 5786 5777 5776 5799 5806 5810 5824 5834 5828 5832 5836 5843 5842 5844 5842 5840 5838 5829 5825 5825 5820 5813 5807 5804 5799 5792 5791 5785 5777 5771 5766 5762 5757 5751 5745 5740 5734 5727 5725 5722 5717
5684 5707 5716 5725 5735 5736 5740 5760 5763 5775 5780 5806 5812 5816 5811 5822 5828 5821 5826 5831 5831 5834 5840 5840 5837 5832 5829 5831 5824 5817 5807 5804 5802 5797 5792 5786 5780 5773 5768 5764 5759 5753 5746 5739 5734 5727 5725 5721 5716
5685 5698 5707 5721 5727 5736 5743 5743 5753 5764 5791 5805 5809 5812 5806 5802 5824 5837 5836 5831 5833 5823 5827 5832 5834 5833 5830 5822 5821 5819 5812 5809 5809 5800 5795 5792 5786 5777 5770 5767 5762 5757 5748 5741 5734 5729 5725 5721 5716
5684 5689 5698 5710 5717 5727 5723 5734 5744 5767 5783 5788 5794 5794 5802 5800 5810 5828 5830 5828 5832 5826 5822 5828 5829 5831 5837 5822 5821 5819 5814 5817 5811 5803 5800 5797 5791 5782 5774 5769 5763 5758 5750 5744 5736 5731 5727 5722 5716
5675 5671 5687 5702 5708 5714 5720 5712 5729 5761 5769 5771 5782 5788 5793 5791 5800 5818 5822 5822 5822 5826 5832 5822 5824 5825 5830 5821 5815 5812 5820 5817 5813 5806 5802 5802 5793 5786 5777 5768 5763 5759 5752 5746 5737 5730 5726 5721 5717
5650 5659 5654 5696 5698 5709 5696 5687 5738 5749 5754 5758 5767 5778 5787 5785 5788 5804 5818 5823 5823 5820 5819 5823 5825 5818 5819 5814 5809 5815 5813 5814 5809 5800 5801 5800 5794 5785 5775 5767 5762 5759 5750 5745 5737 5731 5724 5719 5714
5637 5636 5647 5670 5685 5686 5681 5690 5730 5736 5738 5746 5755 5763 5773 5785 5786 5790 5803 5813 5823 5820 5818 5815 5816 5812 5813 5807 5810 5811 5813 5813 5810 5805 5798 5793 5790 5781 5774 5767 5763 5757 5750 5741 5734 5729 5723 5716 5710
5615 5628 5648 5666 5667 5667 5661 5680 5713 5724 5728 5733 5744 5751 5761 5775 5785 5793 5796 5804 5811 5818 5819 5819 5809 5807 5807 5808 5809 5807 5807 5807 5808 5804 5803 5796 5791 5783 5776 5769 5762 5755 5748 5739 5733 5726 5722 5715 5707
5625 5627 5630 5659 5656 5641 5644 5660 5695 5699 5704 5712 5733 5739 5749 5761 5783 5792 5794 5799 5803 5805 5807 5809 5811 5810 5806 5801 5798 5797 5798 5801 5803 5804 5801 5799 5792 5785 5776 5768 5760 5752 5744 5736 5731 5724 5719 5711 5707
5614 5610 5624 5637 5640 5633 5641 5651 5685 5687 5692 5703 5714 5730 5744 5752 5764 5778 5788 5793 5794 5799 5801 5801 5803 5810 5808 5801 5801 5801 5799 5802 5801 5801 5801 5799 5791 5783 5774 5765 5757 5751 5739 5733 5727 5721 5712 5707 5702
5601 5600 5610 5608 5617 5621 5627 5621 5654 5692 5690 5700 5715 5725 5737 5747 5756 5766 5776 5782 5790 5787 5791 5794 5795 5801 5805 5804 5797 5793 5796 5794 5793 5794 5796 5793 5789 5780 5772 5763 5755 5749 5738 5728 5723 5718 5711 5700 5696
5582 5596 5599 5598 5591 5579 5606 5590 5624 5662 5672 5683 5699 5711 5724 5737 5755 5763 5767 5770 5772 5787 5793 5790 5788 5788 5801 5801 5790 5788 5789 5784 5786 5788 5792 5787 5783 5774 5767 5759 5753 5744 5734 5726 5721 5716 5709 5700 5690
5569 5577 5581 5581 5576 5572 5581 5568 5615 5635 5643 5667 5680 5696 5716 5732 5741 5757 5762 5768 5770 5779 5783 5785 5785 5784 5794 5797 5793 5790 5785 5787 5785 5781 5783 5780 5774 5770 5763 5755 5748 5739 5729 5724 5717 5710 5705 5698 5690
5572 5561 5562 5569 5564 5548 5572 5564 5581 5601 5627 5656 5671 5685 5705 5721 5735 5748 5766 5769 5767 5769 5779 5781 5779 5777 5784 5788 5788 5788 5785 5783 5776 5772 5775 5774 5767 5763 5760 5751 5744 5735 5727 5720 5713 5708 5701 5694 5689
5562 5549 5519 5520 5531 5538 5574 5553 5561 5597 5616 5638 5659 5673 5694 5711 5722 5737 5744 5758 5763 5762 5766 5774 5776 5775 5781 5784 5785 5785 5782 5776 5774 5769 5770 5766 5759 5757 5751 5748 5737 5729 5722 5717 5709 5702 5695 5690 5684
5549 5546 5521 5519 5524 5536 5560 5546 5572 5596 5604 5623 5640 5663 5682 5696 5715 5737 5749 5755 5758 5763 5767 5771 5773 5776 5779 5779 5781 5782 5777 5773 5769 5767 5767 5762 5756 5754 5749 5743 5732 5725 5718 5710 5702 5696 5690 5686 5681
5549 5539 5552 5533 5537 5516 5535 5561 5578 5596 5594 5584 5604 5652 5672 5684 5705 5739 5745 5746 5755 5761 5765 5769 5773 5775 5775 5776 5772 5771 5770 5767 5765 5765 5763 5758 5754 5749 5745 5736 5726 5719 5712 5704 5697 5690 5685 5681 5677
5539 5549 5533 5514 5496 5516 5547 5549 5553 5555 5552 5559 5579 5603 5643 5681 5702 5727 5735 5739 5749 5759 5761 5769 5774 5772 5770 5770 5767 5764 5764 5762 5763 5760 5757 5753 5747 5745 5737 5728 5721 5713 5706 5698 5692 5686 5682 5677 5672
5527 5522 5523 5505 5508 5510 5521 5539 5547 5539 5544 5545 5554 5582 5617 5645 5698 5713 5728 5735 5745 5752 5756 5763 5763 5763 5762 5762 5760 5757 5755 5757 5758 5754 5753 5747 5743 5738 5730 5724 5715 5707 5701 5694 5686 5681 5677 5673 5670
5529 5526 5523 5510 5515 5515 5517 5532 5538 5531 5539 5533 5548 5570 5604 5653 5685 5694 5712 5725 5731 5740 5750 5752 5754 5758 5759 5756 5755 5751 5751 5752 5749 5747 5743 5742 5739 5732 5725 5719 5710 5705 5696 5689 5681 5677 5673 5669 5666